Cherry Point, NC

9:31 PM EDT on October 21, 2017 (GMT -0400)
Cherry Point Marine Corps Air Station

Weather History for KNKT - December, 2013

Change the Weather History Date:

Saturday, December 21, 2013

  Actual Average Record
Temperature  
Mean Temperature 62 °F -  
Max Temperature 72 °F 53 °F 72 °F (2011)
Min Temperature 51 °F 34 °F 17 °F (2004)
Degree Days  
Heating Degree Days 4    
Growing Degree Days 12 (Base 50)    
Moisture  
Dew Point 58 °F    
Average Humidity 90    
Maximum Humidity 97    
Minimum Humidity 73    
Precipitation  
Precipitation 0.00 in - - ()
Sea Level Pressure  
Sea Level Pressure 30.18 in    
Wind  
Wind Speed 4 mph (South)    
Max Wind Speed 13 mph    
Max Gust Speed 23 mph    
Visibility 5 miles    
Events Fog    
Averages and records for this station are not official NWS values.
T = Trace of Precipitation, MM = Missing Value Source: NWS Daily Summary

Daily Weather History Graph

Daily Weather History Graph

Search for Another Location

Airport or City:

Trip Planner

Search our weather history database for the weather conditions in past years. The results will help you decide how hot, cold, wet, or windy it might be!

Date:

Astronomy

Dec. 21, 2013 Rise Set
Actual Time 7:11 AM EST 5:00 PM EST
Civil Twilight 6:43 AM EST 5:28 PM EST
Nautical Twilight 6:11 AM EST 5:59 PM EST
Astronomical Twilight 5:40 AM EST 6:30 PM EST
Moon 9:05 PM EST (12/21) 9:44 AM EST (12/21)
Length of Visible Light 10h 44m
Length of Day
9h 48m
Waning Gibbous, 84% of the Moon is Illuminated
Dec 21
Waning Gibbous
Dec 25
Last Quarter
Jan 1
New
Jan 7
First Quarter
Jan 15
Full

Hourly Weather History & Observations

Time (EST) Temp. Dew Point Humidity Pressure Visibility Wind Dir Wind Speed Gust Speed Precip Events Conditions
12:54 AM 60.1 °F 55.9 °F 86% 30.18 in 10.0 mi South 6.9 mph - N/A   Clear
1:54 AM 61.0 °F 57.9 °F 90% 30.18 in 10.0 mi SSW 4.6 mph - N/A   Clear
2:54 AM 57.9 °F 55.9 °F 93% 30.17 in 8.0 mi Calm Calm - N/A   Clear
3:09 AM 55.9 °F 54.0 °F 93% 30.18 in 2.0 mi South 4.6 mph - N/A   Clear
3:19 AM 59.0 °F 57.0 °F 93% 30.18 in 6.0 mi South 3.5 mph - N/A   Clear
3:54 AM 57.9 °F 55.0 °F 90% 30.16 in 6.0 mi WSW 3.5 mph - N/A   Clear
4:10 AM 57.0 °F 55.0 °F 93% 30.17 in 1.8 mi Calm Calm - N/A   Clear
4:13 AM 57.0 °F 55.0 °F 93% 30.17 in 2.0 mi Calm Calm - N/A   Mostly Cloudy
4:54 AM 53.1 °F 52.0 °F 96% 30.16 in 0.5 mi Calm Calm - N/A Fog Fog
5:04 AM 53.1 °F 51.1 °F 93% 30.17 in 0.8 mi Calm Calm - N/A   Scattered Clouds
5:11 AM 52.0 °F 50.0 °F 93% 30.17 in 1.0 mi Calm Calm - N/A   Mostly Cloudy
5:21 AM 52.0 °F 50.0 °F 93% 30.17 in 2.0 mi Calm Calm - N/A   Scattered Clouds
5:29 AM 51.1 °F 50.0 °F 96% 30.17 in 0.8 mi Calm Calm - N/A   Mostly Cloudy
5:32 AM 51.1 °F 50.0 °F 96% 30.17 in 0.5 mi SSE 3.5 mph - N/A Fog Fog
5:49 AM 51.8 °F 50.0 °F 94% 30.18 in 0.5 mi Calm Calm - N/A Fog Fog
5:54 AM 51.1 °F 50.0 °F 96% 30.17 in 0.8 mi Calm Calm - N/A   Mist
6:00 AM 52.0 °F 50.0 °F 93% 30.18 in 0.5 mi Calm Calm - N/A Fog Fog
6:09 AM 52.0 °F 51.1 °F 97% 30.19 in 0.2 mi Calm Calm - N/A Fog Fog
6:54 AM 51.1 °F 50.0 °F 96% 30.19 in 0.8 mi South 3.5 mph - N/A   Mist
7:03 AM 52.0 °F 50.0 °F 93% 30.20 in 1.2 mi South 4.6 mph - N/A   Overcast
7:08 AM 54.0 °F 52.0 °F 93% 30.20 in 0.5 mi SSW 3.5 mph - N/A Fog Fog
7:19 AM 53.1 °F 52.0 °F 96% 30.20 in 0.2 mi Calm Calm - N/A Fog Fog
7:54 AM 53.1 °F 52.0 °F 96% 30.21 in 0.8 mi Calm Calm - N/A   Mostly Cloudy
8:01 AM 55.0 °F 54.0 °F 96% 30.21 in 0.5 mi Calm Calm - N/A   Overcast
8:05 AM 55.0 °F 54.0 °F 96% 30.21 in 1.0 mi SE 3.5 mph - N/A   Overcast
8:16 AM 57.9 °F 57.0 °F 97% 30.21 in 2.0 mi Calm Calm - N/A   Mostly Cloudy
8:28 AM 59.0 °F 57.0 °F 93% 30.21 in 3.0 mi Calm Calm - N/A   Mostly Cloudy
8:35 AM 57.9 °F 57.0 °F 97% 30.21 in 2.5 mi SSE 5.8 mph - N/A   Mostly Cloudy
8:39 AM 57.9 °F 57.0 °F 97% 30.20 in 1.0 mi SSE 6.9 mph - N/A   Mist
8:42 AM 59.0 °F 57.0 °F 93% 30.20 in 0.5 mi SSE 6.9 mph - N/A   Mist
8:52 AM 60.8 °F 59.0 °F 94% 30.21 in 0.2 mi SSE 6.9 mph - N/A   Mist
8:54 AM 60.1 °F 59.0 °F 96% 30.20 in 0.2 mi SSE 8.1 mph - N/A   Mist
9:20 AM 62.1 °F 61.0 °F 96% 30.21 in 0.8 mi South 5.8 mph - N/A   Mist
9:37 AM 63.0 °F 62.1 °F 97% 30.21 in 2.0 mi South 6.9 mph - N/A   Overcast
9:45 AM 63.0 °F 62.1 °F 97% 30.22 in 10.0 mi South 5.8 mph - N/A   Overcast
9:54 AM 64.0 °F 62.1 °F 93% 30.20 in 10.0 mi South 5.8 mph - N/A   Mostly Cloudy
10:54 AM 69.1 °F 64.0 °F 84% 30.19 in 10.0 mi South 6.9 mph - N/A   Mostly Cloudy
11:54 AM 71.1 °F 62.1 °F 73% 30.17 in 10.0 mi SSW 11.5 mph - N/A   Overcast
12:54 PM 71.1 °F 63.0 °F 75% 30.16 in 10.0 mi South 8.1 mph - N/A   Overcast
1:54 PM 72.0 °F 63.0 °F 73% 30.14 in 10.0 mi SSW 9.2 mph - N/A   Overcast
2:54 PM 71.1 °F 63.0 °F 75% 30.13 in 10.0 mi South 9.2 mph - N/A   Overcast
3:54 PM 71.1 °F 64.0 °F 78% 30.14 in 10.0 mi SSW 6.9 mph - N/A   Clear
4:54 PM 69.1 °F 63.0 °F 81% 30.14 in 10.0 mi South 6.9 mph - N/A   Clear
5:54 PM 66.9 °F 63.0 °F 87% 30.14 in 10.0 mi South 8.1 mph - N/A   Clear
6:54 PM 66.9 °F 63.0 °F 87% 30.16 in 10.0 mi South 6.9 mph - N/A   Clear
7:54 PM 66.9 °F 63.0 °F 87% 30.16 in 10.0 mi South 5.8 mph - N/A   Clear
8:54 PM 68.0 °F 63.0 °F 84% 30.16 in 10.0 mi SSW 6.9 mph - N/A   Scattered Clouds
9:23 PM 69.1 °F 64.9 °F 87% 30.17 in 10.0 mi South 12.7 mph - N/A   Overcast
9:43 PM 70.0 °F 64.9 °F 84% 30.16 in 10.0 mi South 9.2 mph - N/A   Overcast
9:54 PM 70.0 °F 64.9 °F 84% 30.15 in 10.0 mi South 12.7 mph - N/A   Overcast
10:54 PM 71.1 °F 64.9 °F 81% 30.15 in 10.0 mi South 11.5 mph 21.9 mph N/A   Overcast
11:20 PM 71.1 °F 64.9 °F 81% 30.16 in 10.0 mi South 12.7 mph 21.9 mph N/A   Mostly Cloudy
11:54 PM 71.1 °F 64.9 °F 81% 30.14 in 10.0 mi South 12.7 mph 23.0 mph N/A   Clear